STARLINK-5462, 55674

Orbit data source: Space-Track

STARLINK-5462, 55674 is a payload satellite owned by SpaceX/Seattle (US) in LEO that was launched on Fri, 17 Feb 2023 UTC via an FALCON 9 launch vehicle from the Air Force Western Test Range (AFWTR). Payload-class satellites include a variety of spacecraft equipped with specific instruments for various scientific and technological missions. These include communications satellites like Starlink; space stations such as the ISS; scientific satellites like the Hubble; Earth observation satellites from companies like Planet Labs, Umbra, and HawkEye 360; GPS; miniature CubeSats for education and research; and military/defense satellites.

Loading next visibility...
Identifier
55674, 2023-021AY
Orbit
LEO
Country
Flag of USUS
Related business
Manufacturer
SpaceX/Seattle
Mission
Operational Commercial Communications
Bus & Motor
STARLINK, Unknown motor
Mass
305 kg wet, ~290 kg dry
Launch date (UTC)
2023-02-17 (3 years ago)
Launch vehicle
FALCON 9
Launch site
Air Force Western Test Range (AFWTR)
Object type
Payload
Rocket body
Debris
Shape & HBR
Box + 1 Pan, 10.1 m
Radar Cross Section
13.562 m², Large (>1 m²)

Expand to show TLE details & history
Last TLE update: 2 days ago

TLE from 2 days ago
0 STARLINK-5462
1 55674U 23021AY  26171.40387868  .00003228  00000-0  27815-3 0  9997
2 55674  70.0003 265.3302 0003730 268.5137  91.5594 14.98336730184678
Epoch: 2026-06-20T09:41Z
TLE epoch observation values (Epoch: 2026-06-20T09:41:35.117Z)
Latitude
-0.00013°
Longitude
-148.68516°
Altitude
574.531 km
Speed
7.574 km/s
True Right ascension
17h 41m 19s
True Declination
0° 00' 00"
Sunlit
Object was in full shadow at epoch
Visualization orbit readout
Latitude
Unknown
Longitude
Unknown
Altitude
Unknown
Speed
Unknown
Apparent Right ascension
Unknown
Apparent Declination
Unknown
Sunlit
N/A
Visualization observer readout
Local Sidereal Time
21:42:44
Azimuth
Unknown
Elevation
Unknown
Doppler factor
Unknown
Orbital elements
Apogee altitude
572.575 km
Perigee altitude
567.392 km
Semi-major axis
6,948.12 km
Eccentricity
0.00037
Inclination
70.0003°
RAAN
265.3302°
Arg. of periapsis
268.5137°
True anomaly
91.60213°
Mean anomaly
91.5594°
Eccentric anomaly
91.58076°
Mean motion
3.7475 °/min
Orbital period
96.06 mins
BSTAR
0.00027815
Loading maneuver chart data...
Computing Atmospheric mass density...

Documentation

Showing up to 5 results
|